Weather Roundup
Issued by NWS Springfield, MO

Home | Current Version | Previous Version | Text Only | Print | Product List | Glossary On
Versions: 1 2 3 4 5 6 7 8 9 10 11 12 13 14 15 16 17 18 19 20 21 22 23 24 25 26 27 28 29 30 31 32 33 34 35 36 37 38 39 40 41 42 43 44 45 46 47 48 49 50
000
NZUS99 KSGF 291657
HRRSGF

HOURLY WEATHER
NATIONAL WEATHER SERVICE SPRINGFIELD MO
1200 PM CDT FRI JUL 29 2016

......SGF CWA......

CITY           SKY/WX    TMP DP  RH WIND       PRES   REMARKS
SPRINGFIELD    CLOUDY    81  72  74 W8        30.00R
JOPLIN         MOSUNNY   82  72  71 N3        30.02S
WEST PLAINS    MOSUNNY   84  69  60 W6        30.01F
ROLLA          PTSUNNY   81  70  69 SW6       29.98F
BRANSON        PTSUNNY   86  73  66 N6        30.01F HX  93

......SURROUNDING SGF CWA......

CITY           SKY/WX    TMP DP  RH WIND       PRES   REMARKS
CHANUTE        CLOUDY    80  70  71 VRB6      30.01S
PARSONS        CLOUDY    82  71  69 N3        30.02F
COFFEYVILLE    CLOUDY    80  69  69 NE3       30.02R
EMPORIA        MOSUNNY   80  66  62 VRB5      30.02F
HARRISON AR    PTSUNNY   88  73  61 W7        30.00F HX  95

......KANSAS AND MISSOURI......

CITY           SKY/WX    TMP DP  RH WIND       PRES   REMARKS
KANSAS CTY INT PTSUNNY   81  63  54 N10       30.02F
SEDALIA        CLOUDY    82  70  66 NE5       30.02S
ST JOSEPH      MOSUNNY   79  65  62 NE7       30.03S
ST LOUIS       CLOUDY    84  69  60 W6        29.97R
WICHITA        PTSUNNY   80  66  62 NW14      30.04S
TOPEKA         CLOUDY    81  66  60 E3        30.03S
OLATHE         PTSUNNY   80  64  58 VRB3      30.03S

......TENNESSEE......

CITY           SKY/WX    TMP DP  RH WIND       PRES   REMARKS
MEMPHIS        NOT AVBL
NASHVILLE      PTSUNNY   85  72  65 SW8G17    29.98F HX  91

......ARKANSAS.......

CITY           SKY/WX    TMP DP  RH WIND       PRES   REMARKS
FAYETTEVILLE   CLOUDY    77  74  90 SW9       30.03S
FT SMITH       TSTM      75  70  84 W18       30.01R
LITTLE ROCK    MOSUNNY   87  73  62 SW10      29.99R HX  94

......OKLAHOMA.......

CITY           SKY/WX    TMP DP  RH WIND       PRES   REMARKS
TULSA          CLOUDY    81  66  60 NE3       29.99F
PONCA CITY     PTSUNNY   76  66  71 E10       30.03R
MCALESTER      MOSUNNY   85  72  65 VRB7      30.03F HX  91
OKLAHOMA CITY  CLOUDY    75  69  81 W8        30.00F

......IOWA............

CITY           SKY/WX    TMP DP  RH WIND       PRES   REMARKS
DES MOINES     NOT AVBL
QUAD CITIES    PTSUNNY   79  68  69 W7        29.94S

......ILLINOIS........

CITY           SKY/WX    TMP DP  RH WIND       PRES   REMARKS
QUINCY         NOT AVBL
CHICAGO        PTSUNNY   80  69  69 NE10      29.93F




USA.gov is the U.S. government's official web portal to all federal, state and local government web resources and services.